Weather History for KMIW - March, 2013

Change the Weather History Date:

Wednesday, March 6, 2013

  Actual Average Record
Temperature  
Mean Temperature 16 °F 31 °F  
Max Temperature 27 °F 40 °F 72 °F (2005)
Min Temperature 5 °F 22 °F 3 °F (2003)
Degree Days  
Heating Degree Days 49 34  
Month to date heating degree days 264 210  
Since 1 July heating degree days 5268 5613  
Cooling Degree Days 0 0  
Month to date cooling degree days 0 0  
Year to date cooling degree days 0 0  
Moisture  
Dew Point 16 °F    
Average Humidity 83    
Maximum Humidity 92    
Minimum Humidity 74    
Precipitation  
Precipitation 0.00 in 0.05 in 0.10 in (2005)
Month to date precipitation 0.11 0.31  
Sea Level Pressure  
Sea Level Pressure 30.36 in    
Wind  
Wind Speed 10 mph (NNW)    
Max Wind Speed 21 mph    
Max Gust Speed 25 mph    
Visibility 9 miles    
Events      
T = Trace of Precipitation, MM = Missing Value Source: NWS Daily Summary

Daily Weather History Graph

Daily Weather History Graph

Search for Another Location

Airport or City:

Trip Planner

Search our weather history database for the weather conditions in past years. The results will help you decide how hot, cold, wet, or windy it might be!

Date:

Astronomy

Mar. 06, 2013 Rise Set
Actual Time 6:38 AM CST 6:08 PM CST
Civil Twilight 6:10 AM CST 6:36 PM CST
Nautical Twilight 5:37 AM CST 7:08 PM CST
Astronomical Twilight 5:05 AM CST 7:41 PM CST
Moon 2:52 AM CST (3/6) 12:46 PM CST (3/6)
Length of Visible Light 12h 25m
Length of Day
11h 29m
Waning Crescent, 29% of the Moon is Illuminated
Mar 6
Waning Crescent
Mar 11
New
Mar 19
First Quarter
Mar 27
Full
Apr 2
Last Quarter

Hourly Weather History & Observations

Time (CST) Temp. Windchill Dew Point Humidity Pressure Visibility Wind Dir Wind Speed Gust Speed Precip Events Conditions
12:07 AM 24.8 °F 11.5 °F 21.2 °F 86% 30.25 in 10.0 mi NW 17.3 mph - N/A   Mostly Cloudy
12:34 AM 24.8 °F 11.5 °F 21.2 °F 86% 30.25 in 10.0 mi NNW 17.3 mph - N/A   Overcast
12:53 AM 24.1 °F 12.0 °F 21.0 °F 88% 30.29 in 10.0 mi NNW 13.8 mph - N/A   Overcast
1:53 AM 24.1 °F 12.5 °F 21.0 °F 88% 30.31 in 10.0 mi NW 12.7 mph - N/A   Overcast
2:53 AM 24.1 °F 12.0 °F 19.9 °F 84% 30.33 in 10.0 mi NW 13.8 mph - N/A   Overcast
3:37 AM 24.8 °F 11.5 °F 19.4 °F 80% 30.30 in 10.0 mi NW 17.3 mph - N/A   Overcast
3:53 AM 24.1 °F 11.0 °F 19.9 °F 84% 30.34 in 10.0 mi NW 16.1 mph - N/A   Overcast
4:05 AM 23.0 °F 10.1 °F 19.4 °F 86% 30.30 in 10.0 mi NW 15.0 mph - N/A   Overcast
4:26 AM 21.2 °F 8.9 °F 17.6 °F 86% 30.31 in 10.0 mi NW 12.7 mph - N/A   Overcast
4:48 AM 21.2 °F 8.9 °F 17.6 °F 86% 30.32 in 10.0 mi NW 12.7 mph - N/A   Overcast
4:53 AM 21.9 °F 7.8 °F 18.0 °F 85% 30.36 in 10.0 mi NNW 17.3 mph - N/A   Overcast
5:53 AM 21.0 °F 8.6 °F 17.1 °F 85% 30.39 in 10.0 mi NNW 12.7 mph - N/A   Overcast
6:09 AM 19.4 °F 6.6 °F 15.8 °F 86% 30.35 in 10.0 mi NW 12.7 mph - N/A   Scattered Clouds
6:53 AM 17.1 °F 5.8 °F 12.9 °F 84% 30.40 in 10.0 mi NNW 9.2 mph - N/A   Clear
7:41 AM 15.8 °F 2.7 °F 12.2 °F 86% 30.37 in 10.0 mi NW 11.5 mph - N/A   Mostly Cloudy
7:53 AM 18.0 °F 6.1 °F 12.9 °F 81% 30.42 in 10.0 mi NW 10.4 mph - N/A   Overcast
8:46 AM 19.4 °F 9.5 °F 15.8 °F 86% 30.37 in 10.0 mi NW 8.1 mph - N/A   Scattered Clouds
8:53 AM 21.0 °F 11.4 °F 16.0 °F 81% 30.42 in 10.0 mi NW 8.1 mph - N/A   Partly Cloudy
9:27 AM 24.8 °F 14.0 °F 17.6 °F 74% 30.38 in 10.0 mi NNW 11.5 mph - N/A   Mostly Cloudy
9:53 AM 24.1 °F 11.5 °F 18.0 °F 77% 30.42 in 10.0 mi NNW 15.0 mph - N/A   Overcast
10:53 AM 24.1 °F 12.0 °F 18.0 °F 77% 30.43 in 10.0 mi NNW 13.8 mph - N/A   Overcast
11:53 AM 25.0 °F 13.6 °F 19.0 °F 78% 30.43 in 10.0 mi NNW 12.7 mph - N/A   Overcast
12:53 PM 26.1 °F 15.6 °F 19.0 °F 75% 30.41 in 10.0 mi North 11.5 mph - N/A   Overcast
1:53 PM 26.1 °F 16.2 °F 19.9 °F 78% 30.40 in 10.0 mi North 10.4 mph - N/A   Mostly Cloudy
2:53 PM 26.1 °F 15.6 °F 19.0 °F 75% 30.39 in 10.0 mi North 11.5 mph - N/A   Overcast
3:53 PM 25.0 °F 17.1 °F 19.0 °F 78% 30.38 in 10.0 mi North 6.9 mph - N/A   Overcast
4:53 PM 24.1 °F 18.2 °F 18.0 °F 77% 30.39 in 10.0 mi North 4.6 mph - N/A   Overcast
5:53 PM 21.9 °F 17.2 °F 16.0 °F 78% 30.39 in 10.0 mi NW 3.5 mph - N/A   Overcast
6:53 PM 19.9 °F 14.9 °F 16.0 °F 85% 30.39 in 10.0 mi NNW 3.5 mph - N/A   Overcast
7:53 PM 19.0 °F 13.9 °F 15.1 °F 85% 30.38 in 10.0 mi North 3.5 mph - N/A   Overcast
8:39 PM 17.6 °F 12.3 °F 14.0 °F 86% 30.33 in 10.0 mi NNE 3.5 mph - N/A   Mostly Cloudy
8:53 PM 17.1 °F 10.0 °F 14.0 °F 88% 30.38 in 10.0 mi North 4.6 mph - N/A   Partly Cloudy
9:53 PM 16.0 °F 7.4 °F 12.9 °F 88% 30.38 in 9.0 mi NNE 5.8 mph - N/A   Clear
10:53 PM 12.9 °F 6.9 °F 10.0 °F 88% 30.37 in 5.0 mi ENE 3.5 mph - N/A   Clear
11:42 PM 6.8 °F -0.1 °F 6.8 °F 100% 30.33 in 1.5 mi NW 3.5 mph - N/A   Partly Cloudy
11:44 PM 6.8 °F -0.1 °F 5.0 °F 92% 30.34 in 0.8 mi WNW 3.5 mph - N/A   Mist
11:53 PM 5.0 °F -2.1 °F 3.9 °F 95% 30.39 in 1.0 mi WNW 3.5 mph - N/A   Mist
11:56 PM 5.0 °F -2.1 °F 3.2 °F 92% 30.33 in 0.8 mi NW 3.5 mph - N/A   Mist